Flag for Bermuda Weather past 2 weeks in Hamilton, Bermuda

Now
70 °F

Passing clouds.


Feels Like: 70 °F
Forecast: 68 / 73 °F
Wind: 16 mph from West

Location: Bermuda

Current Time: Dec 17, 2014 at 8:59:57 PM

Latest Report: Dec 17, 2014 at 7:55 PM


Visibility: N/A

Pressure: 30.01 "Hg

Humidity: 78%

Dew point: 63 °F

Location of HamiltonLocation

Historic Weather in Hamilton — Graph

°F

Hamilton temperature yesterday

Maximum temperature yesterday: 72 °F (at 10:55 AM)
Minimum temperature yesterday: 64 °F (at 12:55 AM)
Average temperature yesterday: 67 °F

Past Weeks' High & Low Weather Summary

 TemperatureHumidityPressure
High75 °F (Dec 3, 10:55 AM)100% (Dec 10, 8:55 AM)30.33 "Hg (Dec 10, 8:55 AM)
Low61 °F (Dec 14, 5:59 PM)46% (Dec 16, 2:55 PM)29.68 "Hg (Dec 10, 1:55 PM)
Average70 °F72%30.01 "Hg
* Reported Dec 2 8:55 PM — Dec 17 7:55 PM, Hamilton, Weather by CustomWeather, © 2014

Note: Actual official high and low records may vary slightly from our data, if they occured in-between our weather recording intervals... More about our weather records

Advertising

Hamilton weather history for previous 24 hours

 ConditionsComfort  
Time TempWeatherWind HumidityBarometerVisibility
7:55 PM
Dec 17
70 °FPassing clouds.16 mph78%30.01 "HgN/A
6:55 PM70 °FPassing clouds.15 mph73%29.98 "HgN/A
5:55 PM70 °FPartly cloudy.15 mph73%29.98 "HgN/A
4:55 PM70 °FScattered clouds.15 mph73%29.98 "HgN/A
3:55 PM72 °FBroken clouds.17 mph69%29.98 "HgN/A
2:55 PM73 °FBroken clouds.17 mph65%29.98 "HgN/A
1:55 PM72 °FBroken clouds.18 mph69%30.01 "HgN/A
12:55 PM72 °FBroken clouds.21 mph73%30.04 "HgN/A
11:55 AM70 °FBroken clouds.23 mph78%30.07 "HgN/A
10:55 AM68 °FScattered showers. Broken clouds.26 mph78%30.07 "HgN/A
9:55 AM72 °FPartly sunny.20 mph61%30.09 "HgN/A
8:55 AM70 °FBroken clouds.17 mph60%30.07 "HgN/A
7:55 AM68 °FBroken clouds.15 mph60%30.07 "HgN/A
6:55 AM68 °FPassing clouds.14 mph60%30.07 "HgN/A
5:55 AM68 °FPassing clouds.12 mph60%30.07 "HgN/A
4:55 AM66 °FPassing clouds.8 mph64%30.07 "HgN/A
3:55 AM66 °FPassing clouds.7 mph64%30.09 "HgN/A
2:55 AM66 °FPassing clouds.3 mph60%30.12 "HgN/A
1:55 AM66 °FOvercast.2 mph60%30.12 "HgN/A
12:55 AM66 °FOvercast.1 mph60%30.12 "HgN/A
11:55 PM
Dec 16
66 °FOvercast.5 mph56%30.15 "HgN/A
10:55 PM66 °FOvercast.2 mph52%30.15 "HgN/A
9:55 PM66 °FOvercast.No wind56%30.15 "HgN/A
8:55 PM66 °FPassing clouds.2 mph56%30.15 "HgN/A
Weather by CustomWeather, © 2014

See weather overviewHow to use our weather pages